Time,TemperatureF,DewpointF,PressureIn,WindDirection,WindDirectionDegrees,WindSpeedMPH,WindSpeedGustMPH,Humidity,HourlyPrecipIn,Conditions,Clouds,dailyrainin,SoftwareType,DateUTC
2013-07-12 00:00:00,71.7,69.3,29.98,South,188,2.0,2.0,92,0.00,,,0.00,Wunderground v.1.15,2013-07-12 03:00:00,
2013-07-12 00:10:00,71.5,69.1,30.02,SSW,197,3.0,22.0,92,0.00,,,0.00,Wunderground v.1.15,2013-07-12 03:10:00,
2013-07-12 00:20:00,71.4,69.3,30.02,SSW,197,3.0,22.0,93,0.00,,,0.00,Wunderground v.1.15,2013-07-12 03:20:00,
2013-07-12 00:30:00,71.4,69.3,30.02,SW,229,4.0,4.0,93,0.00,,,0.00,Wunderground v.1.15,2013-07-12 03:30:00,
2013-07-12 00:40:00,71.3,69.2,30.00,NNW,344,1.0,22.0,93,0.00,,,0.00,Wunderground v.1.15,2013-07-12 03:40:00,
2013-07-12 00:50:00,70.8,68.4,30.01,North,360,1.0,22.0,92,0.00,,,0.00,Wunderground v.1.15,2013-07-12 03:50:00,
2013-07-12 01:00:00,70.1,67.0,30.02,NNE,12,0.0,22.0,90,0.00,,,0.00,Wunderground v.1.15,2013-07-12 04:00:00,
2013-07-12 01:10:00,69.5,65.5,30.05,ENE,68,1.0,22.0,87,0.00,,,0.00,Wunderground v.1.15,2013-07-12 04:10:00,
2013-07-12 01:20:00,68.8,62.7,30.05,WNW,299,1.0,1.0,81,0.00,,,0.00,Wunderground v.1.15,2013-07-12 04:20:00,
2013-07-12 01:30:00,68.6,61.8,30.02,WNW,302,1.0,1.0,79,0.00,,,0.00,Wunderground v.1.15,2013-07-12 04:30:00,
2013-07-12 01:40:00,68.7,60.1,30.02,NNW,339,1.0,22.0,74,0.00,,,0.00,Wunderground v.1.15,2013-07-12 04:40:00,
2013-07-12 01:50:00,68.7,60.1,30.02,WSW,257,0.0,22.0,74,0.00,,,0.00,Wunderground v.1.15,2013-07-12 04:50:00,
2013-07-12 02:00:00,68.6,59.6,30.05,NE,36,1.0,22.0,73,0.00,,,0.00,Wunderground v.1.15,2013-07-12 05:00:00,
2013-07-12 02:10:00,68.4,59.4,30.06,NNE,26,1.0,22.0,73,0.00,,,0.00,Wunderground v.1.15,2013-07-12 05:10:00,
2013-07-12 02:20:00,68.2,59.6,30.06,WNW,303,1.0,22.0,74,0.00,,,0.00,Wunderground v.1.15,2013-07-12 05:20:00,
2013-07-12 02:40:00,67.6,59.8,30.03,East,94,1.0,22.0,76,0.00,,,0.00,Wunderground v.1.15,2013-07-12 05:40:00,
2013-07-12 02:50:00,67.3,59.8,30.07,NE,50,1.0,1.0,77,0.00,,,0.00,Wunderground v.1.15,2013-07-12 05:50:00,
2013-07-12 03:00:00,67.0,59.9,30.06,NNE,32,1.0,1.0,78,0.00,,,0.00,Wunderground v.1.15,2013-07-12 06:00:00,
2013-07-12 03:10:00,66.8,60.1,30.06,North,357,1.0,22.0,79,0.00,,,0.00,Wunderground v.1.15,2013-07-12 06:10:00,
2013-07-12 03:20:00,66.6,60.2,30.07,SW,217,1.0,1.0,80,0.00,,,0.00,Wunderground v.1.15,2013-07-12 06:20:00,
2013-07-12 03:30:00,66.5,60.5,30.04,NNW,335,0.0,22.0,81,0.00,,,0.00,Wunderground v.1.15,2013-07-12 06:30:00,
2013-07-12 03:40:00,66.3,60.6,30.08,NNW,340,1.0,1.0,82,0.00,,,0.00,Wunderground v.1.15,2013-07-12 06:40:00,
2013-07-12 03:50:00,66.2,61.2,30.08,NNE,27,1.0,1.0,84,0.00,,,0.00,Wunderground v.1.15,2013-07-12 06:50:00,
2013-07-12 04:00:00,66.1,61.8,30.09,West,271,1.0,1.0,86,0.00,,,0.00,Wunderground v.1.15,2013-07-12 07:00:00,
2013-07-12 04:10:00,65.8,61.8,30.06,WNW,301,1.0,22.0,87,0.00,,,0.00,Wunderground v.1.15,2013-07-12 07:10:00,
2013-07-12 04:20:00,65.5,61.9,30.10,NW,319,1.0,22.0,88,0.00,,,0.00,Wunderground v.1.15,2013-07-12 07:20:00,
2013-07-12 04:30:00,65.3,62.0,30.10,WNW,295,1.0,22.0,89,0.00,,,0.00,Wunderground v.1.15,2013-07-12 07:30:00,
2013-07-12 04:40:00,65.2,61.9,30.10,NNW,328,1.0,1.0,89,0.00,,,0.00,Wunderground v.1.15,2013-07-12 07:40:00,
2013-07-12 04:50:00,65.1,61.8,30.08,WNW,295,1.0,22.0,89,0.00,,,0.00,Wunderground v.1.15,2013-07-12 07:50:00,
2013-07-12 05:00:00,65.2,61.2,30.11,WNW,292,1.0,22.0,87,0.00,,,0.00,Wunderground v.1.15,2013-07-12 08:00:00,
2013-07-12 05:10:00,65.5,61.2,30.11,WSW,238,1.0,22.0,86,0.00,,,0.00,Wunderground v.1.15,2013-07-12 08:10:00,
2013-07-12 05:20:00,65.5,60.5,30.12,West,266,1.0,22.0,84,0.00,,,0.00,Wunderground v.1.15,2013-07-12 08:20:00,
2013-07-12 05:30:00,65.4,60.4,30.09,WNW,297,2.0,22.0,84,0.00,,,0.00,Wunderground v.1.15,2013-07-12 08:30:00,
2013-07-12 05:40:00,65.4,60.4,30.13,WNW,287,1.0,22.0,84,0.00,,,0.00,Wunderground v.1.15,2013-07-12 08:40:00,
2013-07-12 05:50:00,65.2,59.9,30.13,NW,324,1.0,22.0,83,0.00,,,0.00,Wunderground v.1.15,2013-07-12 08:50:00,
2013-07-12 06:00:00,65.2,60.2,30.13,WSW,253,1.0,22.0,84,0.00,,,0.00,Wunderground v.1.15,2013-07-12 09:00:00,
2013-07-12 06:10:00,65.1,60.1,30.12,WNW,290,1.0,1.0,84,0.00,,,0.00,Wunderground v.1.15,2013-07-12 09:10:00,
2013-07-12 06:20:00,64.9,59.9,30.15,WSW,238,0.0,22.0,84,0.00,,,0.00,Wunderground v.1.15,2013-07-12 09:20:00,
2013-07-12 06:30:00,64.7,60.1,30.15,WNW,300,1.0,22.0,85,0.00,,,0.00,Wunderground v.1.15,2013-07-12 09:30:00,
2013-07-12 06:40:00,64.5,59.9,30.16,WNW,294,1.0,1.0,85,0.00,,,0.00,Wunderground v.1.15,2013-07-12 09:40:00,
2013-07-12 06:50:00,64.3,59.7,30.13,WNW,288,0.0,22.0,85,0.00,,,0.00,Wunderground v.1.15,2013-07-12 09:50:00,
2013-07-12 07:00:00,64.8,60.2,30.17,WNW,285,0.0,22.0,85,0.00,,,0.00,Wunderground v.1.15,2013-07-12 10:00:00,
2013-07-12 07:10:00,66.1,60.4,30.17,West,271,0.0,22.0,82,0.00,,,0.00,Wunderground v.1.15,2013-07-12 10:10:00,
2013-07-12 07:20:00,66.9,60.5,30.17,West,264,1.0,22.0,80,0.00,,,0.00,Wunderground v.1.15,2013-07-12 10:20:00,
2013-07-12 07:30:00,67.6,61.2,30.17,WNW,290,1.0,22.0,80,0.00,,,0.00,Wunderground v.1.15,2013-07-12 10:30:00,
2013-07-12 07:40:00,68.0,61.2,30.18,West,271,1.0,22.0,79,0.00,,,0.00,Wunderground v.1.15,2013-07-12 10:40:00,
2013-07-12 07:50:00,68.2,60.7,30.19,WNW,289,1.0,1.0,77,0.00,,,0.00,Wunderground v.1.15,2013-07-12 10:50:00,
2013-07-12 08:00:00,68.6,61.5,30.19,WNW,295,1.0,1.0,78,0.00,,,0.00,Wunderground v.1.15,2013-07-12 11:00:00,
2013-07-12 08:10:00,69.5,61.6,30.20,NW,309,0.0,22.0,76,0.00,,,0.00,Wunderground v.1.15,2013-07-12 11:10:00,
2013-07-12 08:20:00,69.7,61.8,30.20,WNW,292,0.0,22.0,76,0.00,,,0.00,Wunderground v.1.15,2013-07-12 11:20:00,
2013-07-12 08:30:00,70.8,62.9,30.21,East,100,0.0,22.0,76,0.00,,,0.00,Wunderground v.1.15,2013-07-12 11:30:00,
2013-07-12 08:40:00,71.5,62.4,30.21,WNW,301,0.0,22.0,73,0.00,,,0.00,Wunderground v.1.15,2013-07-12 11:40:00,
2013-07-12 08:50:00,71.6,62.9,30.18,SSE,154,0.0,22.0,74,0.00,,,0.00,Wunderground v.1.15,2013-07-12 11:50:00,
2013-07-12 09:00:00,71.9,63.9,30.19,NNW,340,1.0,1.0,76,0.00,,,0.00,Wunderground v.1.15,2013-07-12 12:00:00,
2013-07-12 09:10:00,71.9,62.4,30.23,WNW,284,1.0,22.0,72,0.00,,,0.00,Wunderground v.1.15,2013-07-12 12:10:00,
2013-07-12 09:20:00,70.7,61.2,30.23,NNW,344,2.0,2.0,72,0.00,,,0.00,Wunderground v.1.15,2013-07-12 12:20:00,
2013-07-12 09:30:00,71.0,61.9,30.20,WNW,298,1.0,22.0,73,0.00,,,0.00,Wunderground v.1.15,2013-07-12 12:30:00,
2013-07-12 09:40:00,71.7,62.6,30.20,NNW,333,1.0,1.0,73,0.00,,,0.00,Wunderground v.1.15,2013-07-12 12:40:00,
2013-07-12 09:50:00,71.5,62.4,30.24,North,350,1.0,22.0,73,0.00,,,0.00,Wunderground v.1.15,2013-07-12 12:50:00,
2013-07-12 10:00:00,71.5,61.6,30.21,West,260,1.0,1.0,71,0.00,,,0.00,Wunderground v.1.15,2013-07-12 13:00:00,
2013-07-12 10:10:00,71.3,62.2,30.24,East,95,1.0,22.0,73,0.00,,,0.00,Wunderground v.1.15,2013-07-12 13:10:00,
2013-07-12 10:20:00,70.6,60.7,30.24,NW,309,2.0,22.0,71,0.00,,,0.00,Wunderground v.1.15,2013-07-12 13:20:00,
2013-07-12 10:30:00,70.4,60.5,30.22,NW,314,2.0,22.0,71,0.00,,,0.00,Wunderground v.1.15,2013-07-12 13:30:00,
2013-07-12 10:40:00,70.0,59.4,30.25,NW,321,2.0,2.0,69,0.00,,,0.00,Wunderground v.1.15,2013-07-12 13:40:00,
2013-07-12 10:50:00,69.8,58.8,30.23,NW,312,2.0,22.0,68,0.00,,,0.00,Wunderground v.1.15,2013-07-12 13:50:00,
2013-07-12 11:00:00,70.1,59.0,30.26,West,270,2.0,2.0,68,0.00,,,0.00,Wunderground v.1.15,2013-07-12 14:00:00,
2013-07-12 11:10:00,70.2,59.1,30.23,NW,316,2.0,22.0,68,0.00,,,0.00,Wunderground v.1.15,2013-07-12 14:10:00,
2013-07-12 11:20:00,70.1,58.6,30.27,North,9,2.0,22.0,67,0.00,,,0.00,Wunderground v.1.15,2013-07-12 14:20:00,
2013-07-12 11:30:00,70.3,58.4,30.27,NW,319,2.0,22.0,66,0.00,,,0.00,Wunderground v.1.15,2013-07-12 14:30:00,
2013-07-12 11:40:00,70.6,59.9,30.24,NW,309,2.0,22.0,69,0.00,,,0.00,Wunderground v.1.15,2013-07-12 14:40:00,
2013-07-12 11:50:00,70.2,58.7,30.27,WNW,297,2.0,22.0,67,0.00,,,0.00,Wunderground v.1.15,2013-07-12 14:50:00,
2013-07-12 12:00:00,70.9,59.0,30.27,NW,316,1.0,22.0,66,0.00,,,0.00,Wunderground v.1.15,2013-07-12 15:00:00,
2013-07-12 12:10:00,71.4,59.9,30.25,WSW,246,2.0,2.0,67,0.00,,,0.00,Wunderground v.1.15,2013-07-12 15:10:00,
2013-07-12 12:20:00,70.8,59.3,30.28,WNW,300,2.0,2.0,67,0.00,,,0.00,Wunderground v.1.15,2013-07-12 15:20:00,
2013-07-12 12:30:00,71.1,60.0,30.25,NW,319,2.0,22.0,68,0.00,,,0.00,Wunderground v.1.15,2013-07-12 15:30:00,
2013-07-12 12:40:00,71.0,59.5,30.28,NW,315,2.0,22.0,67,0.00,,,0.00,Wunderground v.1.15,2013-07-12 15:40:00,
2013-07-12 12:50:00,71.0,58.6,30.28,North,352,2.0,22.0,65,0.00,,,0.00,Wunderground v.1.15,2013-07-12 15:50:00,
2013-07-12 13:00:00,70.6,59.5,30.25,NW,323,2.0,22.0,68,0.00,,,0.00,Wunderground v.1.15,2013-07-12 16:00:00,
2013-07-12 13:10:00,70.5,58.2,30.28,WSW,248,2.0,2.0,65,0.00,,,0.00,Wunderground v.1.15,2013-07-12 16:10:00,
2013-07-12 13:20:00,70.6,59.9,30.26,NW,305,2.0,22.0,69,0.00,,,0.00,Wunderground v.1.15,2013-07-12 16:20:00,
2013-07-12 13:30:00,71.5,59.1,30.28,North,353,1.0,22.0,65,0.00,,,0.00,Wunderground v.1.15,2013-07-12 16:30:00,
2013-07-12 13:40:00,71.1,60.0,30.28,NW,309,2.0,22.0,68,0.00,,,0.00,Wunderground v.1.15,2013-07-12 16:40:00,
2013-07-12 13:50:00,71.7,60.6,30.26,NW,311,1.0,22.0,68,0.00,,,0.00,Wunderground v.1.15,2013-07-12 16:50:00,
2013-07-12 14:00:00,71.3,58.1,30.26,NE,52,2.0,2.0,63,0.00,,,0.00,Wunderground v.1.15,2013-07-12 17:00:00,
2013-07-12 14:10:00,71.2,59.7,30.29,NNE,12,1.0,22.0,67,0.00,,,0.00,Wunderground v.1.15,2013-07-12 17:10:00,
2013-07-12 14:20:00,71.3,59.4,30.26,NW,311,1.0,22.0,66,0.00,,,0.00,Wunderground v.1.15,2013-07-12 17:20:00,
2013-07-12 14:30:00,70.5,58.6,30.26,NW,318,2.0,22.0,66,0.00,,,0.00,Wunderground v.1.15,2013-07-12 17:30:00,
2013-07-12 14:40:00,70.8,59.3,30.27,WNW,300,1.0,22.0,67,0.00,,,0.00,Wunderground v.1.15,2013-07-12 17:40:00,
2013-07-12 14:50:00,71.2,58.4,30.30,NNW,329,2.0,22.0,64,0.00,,,0.00,Wunderground v.1.15,2013-07-12 17:50:00,
2013-07-12 15:00:00,70.5,59.0,30.27,East,90,2.0,2.0,67,0.00,,,0.00,Wunderground v.1.15,2013-07-12 18:00:00,
2013-07-12 15:10:00,70.9,59.0,30.27,NW,316,1.0,22.0,66,0.00,,,0.00,Wunderground v.1.15,2013-07-12 18:10:00,
2013-07-12 15:20:00,71.4,59.9,30.29,North,8,1.0,22.0,67,0.00,,,0.00,Wunderground v.1.15,2013-07-12 18:20:00,
2013-07-12 15:30:00,71.4,59.4,30.27,WNW,290,1.0,1.0,66,0.00,,,0.00,Wunderground v.1.15,2013-07-12 18:30:00,
2013-07-12 15:40:00,71.4,58.6,30.27,NNW,327,1.0,22.0,64,0.00,,,0.00,Wunderground v.1.15,2013-07-12 18:40:00,
2013-07-12 15:50:00,70.5,59.0,30.29,WNW,300,1.0,22.0,67,0.00,,,0.00,Wunderground v.1.15,2013-07-12 18:50:00,
2013-07-12 16:00:00,71.1,58.7,30.30,NNW,331,1.0,22.0,65,0.00,,,0.00,Wunderground v.1.15,2013-07-12 19:00:00,
2013-07-12 16:10:00,71.1,60.0,30.29,SW,224,1.0,1.0,68,0.00,,,0.00,Wunderground v.1.15,2013-07-12 19:10:00,
2013-07-12 16:20:00,71.4,59.9,30.26,WNW,298,1.0,22.0,67,0.00,,,0.00,Wunderground v.1.15,2013-07-12 19:20:00,
2013-07-12 16:30:00,71.6,58.8,30.29,NW,315,1.0,22.0,64,0.00,,,0.00,Wunderground v.1.15,2013-07-12 19:30:00,
2013-07-12 16:40:00,70.7,58.8,30.27,NW,316,1.0,22.0,66,0.00,,,0.00,Wunderground v.1.15,2013-07-12 19:40:00,
2013-07-12 16:50:00,70.7,59.6,30.27,NW,323,1.0,22.0,68,0.00,,,0.00,Wunderground v.1.15,2013-07-12 19:50:00,
2013-07-12 17:00:00,70.8,58.4,30.30,West,277,1.0,22.0,65,0.00,,,0.00,Wunderground v.1.15,2013-07-12 20:00:00,
2013-07-12 17:10:00,70.4,58.1,30.27,WNW,288,1.0,1.0,65,0.00,,,0.00,Wunderground v.1.15,2013-07-12 20:10:00,
2013-07-12 17:20:00,69.8,58.3,30.30,West,262,1.0,1.0,67,0.00,,,0.00,Wunderground v.1.15,2013-07-12 20:20:00,
2013-07-12 17:30:00,70.1,58.2,30.28,West,263,1.0,22.0,66,0.00,,,0.00,Wunderground v.1.15,2013-07-12 20:30:00,
2013-07-12 17:40:00,70.1,59.0,30.30,WNW,293,1.0,22.0,68,0.00,,,0.00,Wunderground v.1.15,2013-07-12 20:40:00,
2013-07-12 17:50:00,70.3,57.5,30.28,WSW,250,1.0,1.0,64,0.00,,,0.00,Wunderground v.1.15,2013-07-12 20:50:00,
2013-07-12 18:00:00,70.3,58.8,30.31,NW,305,1.0,1.0,67,0.00,,,0.00,Wunderground v.1.15,2013-07-12 21:00:00,
2013-07-12 18:10:00,70.5,59.0,30.31,NE,55,0.0,22.0,67,0.00,,,0.00,Wunderground v.1.15,2013-07-12 21:10:00,
2013-07-12 18:20:00,70.1,58.2,30.29,WNW,288,1.0,1.0,66,0.00,,,0.00,Wunderground v.1.15,2013-07-12 21:20:00,
2013-07-12 18:30:00,69.9,58.4,30.32,NW,314,0.0,22.0,67,0.00,,,0.00,Wunderground v.1.15,2013-07-12 21:30:00,
2013-07-12 18:40:00,69.0,57.6,30.31,WNW,300,1.0,1.0,67,0.00,,,0.00,Wunderground v.1.15,2013-07-12 21:40:00,
2013-07-12 18:50:00,68.3,57.3,30.28,NW,314,0.0,22.0,68,0.00,,,0.00,Wunderground v.1.15,2013-07-12 21:50:00,
2013-07-12 19:00:00,69.0,58.0,30.28,NW,312,0.0,22.0,68,0.00,,,0.00,Wunderground v.1.15,2013-07-12 22:00:00,
2013-07-12 19:10:00,67.6,57.5,30.32,WNW,285,0.0,22.0,70,0.00,,,0.00,Wunderground v.1.15,2013-07-12 22:10:00,
2013-07-12 19:20:00,66.7,56.6,30.32,WNW,285,0.0,22.0,70,0.00,,,0.00,Wunderground v.1.15,2013-07-12 22:20:00,
2013-07-12 19:40:00,65.6,56.7,30.30,WNW,287,0.0,22.0,73,0.00,,,0.00,Wunderground v.1.15,2013-07-12 22:40:00,
2013-07-12 19:50:00,65.0,56.5,30.30,North,353,0.0,22.0,74,0.00,,,0.00,Wunderground v.1.15,2013-07-12 22:50:00,
2013-07-12 20:00:00,64.3,56.2,30.32,North,353,0.0,22.0,75,0.00,,,0.00,Wunderground v.1.15,2013-07-12 23:00:00,
2013-07-12 20:10:00,63.7,56.4,30.32,ESE,108,0.0,22.0,77,0.00,,,0.00,Wunderground v.1.15,2013-07-12 23:10:00,
2013-07-12 20:20:00,63.0,56.0,30.32,ESE,108,0.0,22.0,78,0.00,,,0.00,Wunderground v.1.15,2013-07-12 23:20:00,
2013-07-12 20:30:00,63.0,56.4,30.32,East,98,0.0,22.0,79,0.00,,,0.00,Wunderground v.1.15,2013-07-12 23:30:00,
2013-07-12 20:40:00,62.6,56.0,30.33,ESE,114,0.0,22.0,79,0.00,,,0.00,Wunderground v.1.15,2013-07-12 23:40:00,
2013-07-12 20:50:00,61.8,55.9,30.33,ESE,115,0.0,22.0,81,0.00,,,0.00,Wunderground v.1.15,2013-07-12 23:50:00,
2013-07-12 21:00:00,60.7,55.8,30.33,ESE,114,0.0,22.0,84,0.00,,,0.00,Wunderground v.1.15,2013-07-13 00:00:00,
2013-07-12 21:10:00,59.7,55.5,30.33,ESE,114,0.0,22.0,86,0.00,,,0.00,Wunderground v.1.15,2013-07-13 00:10:00,
2013-07-12 21:20:00,58.4,54.5,30.33,ESE,114,0.0,22.0,87,0.00,,,0.00,Wunderground v.1.15,2013-07-13 00:20:00,
2013-07-12 21:30:00,57.5,54.0,30.33,ESE,114,0.0,22.0,88,0.00,,,0.00,Wunderground v.1.15,2013-07-13 00:30:00,
2013-07-12 21:40:00,56.7,53.2,30.34,ESE,115,0.0,22.0,88,0.00,,,0.00,Wunderground v.1.15,2013-07-13 00:40:00,
2013-07-12 21:50:00,55.9,52.7,30.34,ESE,115,0.0,22.0,89,0.00,,,0.00,Wunderground v.1.15,2013-07-13 00:50:00,
2013-07-12 22:00:00,55.1,52.2,30.33,ESE,115,0.0,22.0,90,0.00,,,0.00,Wunderground v.1.15,2013-07-13 01:00:00,
2013-07-12 22:10:00,54.5,51.9,30.33,ESE,115,0.0,22.0,91,0.00,,,0.00,Wunderground v.1.15,2013-07-13 01:10:00,
2013-07-12 22:20:00,54.2,51.9,30.33,ESE,115,0.0,22.0,92,0.00,,,0.00,Wunderground v.1.15,2013-07-13 01:20:00,
2013-07-12 22:30:00,53.7,51.4,30.33,ESE,115,0.0,22.0,92,0.00,,,0.00,Wunderground v.1.15,2013-07-13 01:30:00,
2013-07-12 22:50:00,52.7,50.7,30.34,ESE,115,0.0,22.0,93,0.00,,,0.00,Wunderground v.1.15,2013-07-13 01:50:00,
2013-07-12 23:00:00,52.3,50.3,30.34,ESE,115,0.0,22.0,93,0.00,,,0.00,Wunderground v.1.15,2013-07-13 02:00:00,
2013-07-12 23:10:00,51.6,49.6,30.34,ESE,114,0.0,22.0,93,0.00,,,0.00,Wunderground v.1.15,2013-07-13 02:10:00,
2013-07-12 23:20:00,51.6,49.9,30.34,ESE,115,0.0,22.0,94,0.00,,,0.00,Wunderground v.1.15,2013-07-13 02:20:00,
2013-07-12 23:30:00,51.2,49.2,30.35,ESE,115,0.0,22.0,93,0.00,,,0.00,Wunderground v.1.15,2013-07-13 02:30:00,
2013-07-12 23:40:00,51.0,49.3,30.35,ESE,115,0.0,22.0,94,0.00,,,0.00,Wunderground v.1.15,2013-07-13 02:40:00,
2013-07-12 23:50:00,50.6,48.9,30.34,SE,131,0.0,22.0,94,0.00,,,0.00,Wunderground v.1.15,2013-07-13 02:50:00,